Location: Writing-on-Stone Provincial Park
(49.0825°N, 111.6163°W)
Time: 21:35:42
(UTC-06:00)

Daily predictions for brighter satellites

Satellite Brightness Start Highest point End
(mag) Time Altitude Azimuth Time Altitude Azimuth Time Altitude Azimuth
Meteor 1-29 3.7 22:13:11 10° N 22:16:34 57° WNW 22:19:56 10° SSW
CZ-3B DEB 4.3 22:06:49 10° WSW 22:17:02 77° NNW 22:30:19 10° ENE
Cosmos 2221 3.0 22:14:45 10° NNW 22:19:07 65° W 22:23:28 10° S
Terra 3.1 22:16:04 10° ESE 22:20:08 29° ENE 22:24:12 10° N
Okean 3 Rocket 3.7 22:18:44 10° S 22:23:15 88° W 22:27:45 10° N
ERBS 2.9 22:20:38 10° NW 22:23:59 53° NNE 22:27:19 10° ESE
Cosmos 2016 Rocket 4.1 22:18:48 10° N 22:25:07 69° ENE 22:31:17 10° SSE
Cosmos 332 Rocket 4.1 22:23:26 10° NNW 22:28:17 59° ENE 22:33:08 10° SE
Cosmos 2208 Rocket 4.5 22:23:20 10° NNW 22:28:34 63° WSW 22:33:52 10° S
RESURS DK-1 2.5 22:26:57 10° NNW 22:31:08 69° ENE 22:35:16 10° SE
Cosmos 1242 Rocket 3.1 22:28:17 10° NNW 22:31:58 61° W 22:35:38 10° S
CZ-3A R/B 1.7 22:31:54 10° N 22:32:09 10° NNE 22:32:25 10° NNE
Cosmos 1814 Rocket 4.4 22:27:53 10° NNW 22:33:12 58° ENE 22:38:24 10° SE
BREEZE-M DEB (TANK) 1.8 22:34:11 10° WSW 22:36:19 77° SSE 22:41:30 10° E
CARTOSAT-1 4.5 22:32:46 10° SE 22:36:43 36° ENE 22:40:42 10° N
SL-08 RB Rocket 3.8 22:34:49 10° SSE 22:39:23 85° WSW 22:44:03 10° NNW
YAOGAN 11 4.4 22:36:43 10° S 22:41:12 70° WSW 22:45:46 10° NNW
Cosmos 1766 Rocket 3.5 22:37:23 10° S 22:41:42 73° E 22:46:03 10° NNE
SPOT 1/Viking Rocket 3.6 22:37:38 10° SSE 22:42:47 86° ENE 22:47:58 10° NNW
Meteor 2-2 Rocket 4.3 22:38:21 10° N 22:44:08 75° ENE 22:49:59 10° SSE
USA 245 3.6 22:41:24 10° S 22:44:43 61° W 22:48:57 10° NNW
Cosmos 1328 Rocket 3.6 22:41:30 10° N 22:45:50 64° ENE 22:49:54 11° SSE
Cosmos 841 Rocket 4.1 22:41:29 10° NNW 22:46:36 48° ENE 22:51:18 12° SE
Cosmos 2228 Rocket 3.3 22:43:08 10° N 22:47:43 63° ENE 22:51:58 12° SSE
Cosmos 1515 Rocket 3.9 22:45:11 10° N 22:49:26 51° ENE 22:53:11 13° SSE
SL-14 R/B 3.7 22:46:12 10° SSE 22:49:59 44° E 22:53:46 10° NNE
Meteor 1-21 Rocket 4.4 22:44:19 10° SSW 22:50:00 81° W 22:55:38 10° N
Cosmos 1763 Rocket 3.7 22:44:58 10° NNW 22:50:06 62° ENE 22:54:37 13° SE
Cosmos 2233 Rocket 4.4 22:44:23 10° N 22:50:27 49° ENE 22:55:56 12° SSE
Cosmos 1328 4.1 22:51:24 10° S 22:55:18 51° E 22:59:14 10° NNE
Cosmos 2297 Rocket 3.7 22:50:16 10° WSW 22:55:35 40° NW 23:00:56 10° NNE
Cosmos 1300 2.7 22:52:43 10° N 22:56:35 85° E 23:00:02 13° S
H-2A R/B 2.6 22:54:28 13° SE 22:58:04 46° ENE 23:02:08 10° N
Cosmos 1743 Rocket 3.8 22:54:02 11° S 22:58:08 51° E 23:02:20 10° NNE
Cosmos 1151 Rocket 3.5 22:53:54 10° N 22:58:11 49° ENE 23:01:42 14° SSE
EO 1 Delta rocket 3.9 22:54:39 10° S 22:59:23 80° W 23:04:05 10° NNW
Cosmos 1867 3.6 22:55:24 10° SSW 23:00:51 83° SE 23:06:22 10° NE
Cosmos 1626 3.5 23:00:20 15° SE 23:02:29 23° E 23:05:30 10° NE
Cosmos 1726 2.5 23:00:56 10° NNW 23:04:34 58° W 23:08:04 11° S
Cosmos 2263 Rocket 3.1 23:03:21 13° SSE 23:07:23 29° ESE 23:12:08 10° NE
Cosmos 2084 3.4 23:07:37 10° SW 23:11:34 76° NW 23:15:23 10° NE
SPOT 5 4.0 23:08:26 10° SSW 23:12:58 40° W 23:17:47 10° NNW
Meteor 2-10 4.3 23:07:53 10° NNW 23:13:27 77° W 23:18:40 12° S
Lacrosse 5 2.3 23:08:42 10° WNW 23:13:35 49° SW 23:17:19 16° SSE
IGS 5A 3.5 23:10:27 16° SSE 23:13:46 78° ENE 23:17:57 10° N
ATLAS 5 CENTAUR R/B 2.4 23:10:52 10° SW 23:15:36 63° NW 23:20:52 10° NE
Abrixas rocket 2.6 23:15:17 10° W 23:18:24 43° SSW 23:20:10 21° SE
Cosmos 371 Rocket 3.5 23:14:25 10° NNW 23:19:11 64° WSW 23:23:02 16° S
Cosmos 2123 Rocket 4.1 23:16:22 10° SSW 23:22:33 81° W 23:28:49 10° N
PSLV R/B 3.3 23:21:17 23° SE 23:22:47 50° ENE 23:25:36 10° N
H-2A R/B 3.0 23:22:15 10° S 23:27:20 45° W 23:32:33 10° NNW
USA 234 3.2 23:22:42 10° ENE 23:29:17 79° SE 23:35:50 10° SW
Cosmos 1455 2.7 23:26:46 10° N 23:30:33 48° ENE 23:32:48 21° SE
Cosmos 2285 Rocket 4.2 23:24:14 10° NNW 23:30:34 67° ENE 23:35:29 18° SE
CZ-4C R/B 4.1 23:28:58 19° SE 23:31:47 48° ENE 23:36:02 10° N
SL-19 R/B 4.3 23:32:30 23° ESE 23:33:49 39° ENE 23:36:34 10° N
DELTA 2 DEB (DPAF) 4.4 23:34:15 20° SE 23:37:14 60° ENE 23:41:39 10° N
Cosmos 220 Rocket 4.0 23:34:31 10° SSW 23:38:57 87° WNW 23:43:22 10° NNE
Tiangong 1 2.4 23:37:31 10° WSW 23:39:04 19° SSW 23:39:04 19° SSW
deb Chang Zheng 4 3.6 23:36:56 10° NNE 23:41:18 66° ESE 23:44:23 19° S
Cosmos 1943 3.5 23:38:14 10° NW 23:43:48 61° WSW 23:47:48 19° S
Sich 1 4.3 23:44:49 19° SE 23:46:42 26° E 23:50:17 10° NNE
ALOS 2 4.2 23:43:56 13° ESE 23:46:52 24° ENE 23:50:25 10° N
CZ-2C R/B 4.2 23:44:02 15° SE 23:48:19 38° ENE 23:53:30 10° N
CZ-4B R/B 3.7 23:44:15 10° NNE 23:49:30 60° ESE 23:53:06 20° S
CZ-4 R/B 3.8 23:45:10 10° NNE 23:50:06 73° ESE 23:53:35 19° S
Cosmos 1707 Rocket 4.0 23:46:55 10° N 23:51:18 51° ENE 23:53:51 23° SE
Cosmos 1703 3.2 23:51:37 21° S 23:54:12 88° ESE 23:58:14 10° N
Cosmos 1356 3.7 23:51:47 19° SSW 23:54:12 69° WNW 23:57:43 10° N
Cosmos 2058 3.0 23:51:16 17° SSW 23:54:25 77° W 23:58:39 10° N
CZ-4C R/B 3.6 23:54:51 17° SE 23:56:09 18° ESE 23:59:58 10° ENE
